Location: Caltech
(34.1382°N, 118.1253°W)
Time: 05:21:38
(UTC-07:00)

Iridium 18 - Visible Passes

Search period start: 28 July 2014 00:00
Search period end: 07 August 2014 00:00
Orbit: 776 x 779 km, 86.4° (Epoch: 28 July)

Date Brightness Start Highest point End Pass type
(mag) Time Alt. Az. Time Alt. Az. Time Alt. Az.
28 Jul 6.5 22:23:22 10° NNE 22:27:05 33° ENE 22:27:05 33° ENE visible
29 Jul 7.7 00:04:49 10° NW 00:07:34 19° WNW 00:07:34 19° WNW visible
29 Jul 7.2 21:50:46 10° NE 21:53:44 19° ENE 21:53:44 19° ENE visible
29 Jul 6.9 23:30:27 10° NNW 23:34:12 35° WNW 23:34:12 35° WNW visible
30 Jul 6.0 22:56:38 10° N 23:00:51 58° NNW 23:00:51 58° NNW visible
31 Jul 5.9 22:23:12 10° N 22:27:31 49° NE 22:27:31 49° NE visible
01 Aug 8.0 00:06:00 10° NW 00:08:00 13° WNW 00:08:00 13° WNW visible
01 Aug 6.6 21:50:12 10° NNE 21:54:11 28° ENE 21:54:11 28° ENE visible
01 Aug 7.3 23:30:58 10° NNW 23:34:40 26° WNW 23:34:40 26° WNW visible
02 Aug 7.3 21:18:02 10° NE 21:20:52 15° ENE 21:20:52 15° ENE visible
02 Aug 6.3 22:56:51 10° NNW 23:01:21 48° WNW 23:01:21 48° WNW visible
03 Aug 5.5 22:23:11 10° N 22:28:02 76° NNE 22:28:02 76° NNE visible
04 Aug 6.0 21:49:55 10° NNE 21:54:44 42° E 21:54:44 42° E visible
04 Aug 7.7 23:31:46 10° NW 23:35:08 18° W 23:35:13 18° W visible
05 Aug 6.8 21:17:09 10° NNE 21:21:09 22° E 21:21:27 22° E visible
05 Aug 6.8 22:57:13 10° NNW 23:01:52 34° W 23:01:56 34° W visible
06 Aug 7.5 20:45:54 10° ENE 20:47:19 11° ENE 20:48:11 11° E visible
06 Aug 5.7 22:23:18 10° N 22:28:29 67° W 22:28:40 66° WSW visible
